This is the latest recevied weather packets stored in our database for station/object EA3ANS-1. If no packets are shown the sender has not sent any weather packets the latest 10 day(s).
| Time | Temp. | Humidity | Pressure | Rain* | Wind** | Luminosity | Snow |
|---|---|---|---|---|---|---|---|
| 1777508436 | 16.11° C | - | 1014.3 hPa | 0 mm | 0 m/s | - | - |
| 1777507836 | 16.67° C | - | 1014.4 hPa | 0 mm | 0 m/s | - | - |
| 1777507233 | 16.11° C | - | 1014.2 hPa | 0 mm | 0 m/s | - | - |
| 1777506636 | 16.67° C | - | 1014.2 hPa | 0 mm | 0.89 m/s, 48° | - | - |
| 1777506038 | 16.67° C | - | 1014.2 hPa | 0 mm | 0.45 m/s, 34° | - | - |
| 1777505441 | 16.67° C | - | 1014 hPa | 0 mm | 1.79 m/s, 68° | - | - |
| 1777504843 | 17.22° C | - | 1014.3 hPa | 0 mm | 0 m/s | - | - |
| 1777504246 | 17.22° C | - | 1014.1 hPa | 0 mm | 0 m/s | - | - |
| 1777503646 | 17.22° C | - | 1014 hPa | 0 mm | 0 m/s | - | - |
| 1777503036 | 17.22° C | - | 1014.1 hPa | 0 mm | 0 m/s | - | - |
| 1777502438 | 17.22° C | - | 1014 hPa | 0 mm | 0.45 m/s, 135° | - | - |
| 1777501831 | 17.22° C | - | 1014.2 hPa | 0 mm | 0 m/s | - | - |
| 1777501234 | 17.22° C | - | 1014.3 hPa | 0 mm | 0 m/s | - | - |
| 1777500636 | 17.22° C | - | 1014.2 hPa | 0 mm | 0 m/s | - | - |
| 1777500033 | 17.22° C | - | 1014.1 hPa | 0 mm | 0.45 m/s, 51° | - | - |
| 1777499435 | 17.78° C | - | 1014.1 hPa | 0 mm | 0.89 m/s, 129° | - | - |
| 1777498827 | 17.22° C | - | 1014 hPa | 0 mm | 1.34 m/s, 131° | - | - |
| 1777498229 | 17.78° C | - | 1014.1 hPa | 0 mm | 1.34 m/s, 121° | - | - |
| 1777497632 | 17.78° C | - | 1014 hPa | 0 mm | 1.34 m/s, 122° | - | - |
| 1777497034 | 17.78° C | - | 1013.9 hPa | 0 mm | 1.34 m/s, 127° | - | - |
| 1777496433 | 18.33° C | - | 1013.7 hPa | 0 mm | 1.34 m/s, 139° | - | - |
| 1777495835 | 18.33° C | - | 1013.6 hPa | 0 mm | 1.79 m/s, 158° | - | - |
| 1777495238 | 18.33° C | - | 1013.6 hPa | 0 mm | 1.34 m/s, 214° | - | - |
| 1777494633 | 18.33° C | - | 1013.3 hPa | 0 mm | 0.89 m/s, 155° | - | - |
| 1777494036 | 18.33° C | - | 1013.3 hPa | 0 mm | 1.34 m/s, 139° | - | - |
* Rain latest hour (hover to see other rain measurements)
** Current wind speed in m/s (hover to see current wind gust speed)